Location: Martley
(52.2333°N, 2.3667°W)
Time: 14:11:31
(UTC+00:00)

USA 238 DEB - Pass Details

Date: 11 December 2019
Orbit: 1024 x 1188 km, 63.4° (Epoch: 16 January)

Event Time Altitude Azimuth Distance (km) Brightness Sun altitude
Rises 06:47:19 0° 206° (SSW) 3,772 6.5 -11.5°
Reaches altitude 10° 06:49:56 10° 202° (SSW) 2,835 6.0 -11.1°
Maximum altitude 06:56:27 58° 126° (SE) 1,229 4.4 -10.2°
Drops below altitude 10° 07:03:13 10° 50° (NE) 2,945 6.3 -9.3°
Sets 07:05:58 0° 46° (NE) 3,930 6.9 -8.9°
